Time,TemperatureF,DewpointF,PressureIn,WindDirection,WindDirectionDegrees,WindSpeedMPH,WindSpeedGustMPH,Humidity,HourlyPrecipIn,Conditions,Clouds,dailyrainin,SoftwareType,DateUTC
2013-05-05 00:00:00,58.9,42.7,30.24,SE,144,8.0,15.0,55,0.00,CLR,,0.00,WeatherDisplay:10.37,2013-05-05 04:00:00,
2013-05-05 00:10:00,58.4,43.7,30.24,SSE,154,5.0,10.0,58,0.00,CLR,,0.00,WeatherDisplay:10.37,2013-05-05 04:10:00,
2013-05-05 00:30:00,57.5,43.7,30.25,SSE,159,5.0,10.0,60,0.00,CLR,,0.00,WeatherDisplay:10.37,2013-05-05 04:30:00,
2013-05-05 00:40:00,57.1,43.8,30.25,SSE,159,6.0,9.0,61,0.00,CLR,,0.00,WeatherDisplay:10.37,2013-05-05 04:40:00,
2013-05-05 00:50:00,56.6,43.7,30.25,South,170,6.0,12.0,62,0.00,CLR,,0.00,WeatherDisplay:10.37,2013-05-05 04:50:00,
2013-05-05 01:00:00,56.4,43.5,30.25,SSE,158,8.0,10.0,62,0.00,CLR,,0.00,WeatherDisplay:10.37,2013-05-05 05:00:00,
2013-05-05 01:10:00,56.1,43.6,30.25,SSE,162,5.0,9.0,63,0.00,CLR,,0.00,WeatherDisplay:10.37,2013-05-05 05:10:00,
2013-05-05 01:20:00,55.6,43.6,30.25,SSE,155,3.0,9.0,64,0.00,CLR,,0.00,WeatherDisplay:10.37,2013-05-05 05:20:00,
2013-05-05 01:30:00,55.2,43.6,30.25,SSE,161,6.0,9.0,65,0.00,CLR,,0.00,WeatherDisplay:10.37,2013-05-05 05:30:00,
2013-05-05 01:40:00,54.8,43.7,30.25,SSE,156,6.0,8.0,66,0.00,CLR,,0.00,WeatherDisplay:10.37,2013-05-05 05:40:00,
2013-05-05 01:50:00,54.4,43.6,30.24,South,169,7.0,9.0,67,0.00,CLR,,0.00,WeatherDisplay:10.37,2013-05-05 05:50:00,
2013-05-05 02:00:00,54.0,43.7,30.24,SSE,164,6.0,10.0,68,0.00,CLR,,0.00,WeatherDisplay:10.37,2013-05-05 06:00:00,
2013-05-05 02:10:00,53.6,43.7,30.24,SSE,165,3.0,9.0,69,0.00,CLR,,0.00,WeatherDisplay:10.37,2013-05-05 06:10:00,
2013-05-05 02:20:00,53.2,43.7,30.24,SSE,158,7.0,10.0,70,0.00,CLR,,0.00,WeatherDisplay:10.37,2013-05-05 06:20:00,
2013-05-05 02:30:00,52.8,43.7,30.24,SSE,153,5.0,8.0,71,0.00,CLR,,0.00,WeatherDisplay:10.37,2013-05-05 06:30:00,
2013-05-05 02:40:00,52.3,43.6,30.25,SSE,155,2.0,12.0,72,0.00,CLR,,0.00,WeatherDisplay:10.37,2013-05-05 06:40:00,
2013-05-05 02:50:00,52.1,43.3,30.25,SSE,150,3.0,9.0,72,0.00,CLR,,0.00,WeatherDisplay:10.37,2013-05-05 06:50:00,
2013-05-05 03:00:00,51.8,43.0,30.25,SSE,168,2.0,6.0,72,0.00,CLR,,0.00,WeatherDisplay:10.37,2013-05-05 07:00:00,
2013-05-05 03:10:00,51.2,42.8,30.25,SSE,163,5.0,6.0,73,0.00,CLR,,0.00,WeatherDisplay:10.37,2013-05-05 07:10:00,
2013-05-05 03:20:00,51.1,42.7,30.25,SSE,156,3.0,6.0,73,0.00,CLR,,0.00,WeatherDisplay:10.37,2013-05-05 07:20:00,
2013-05-05 03:30:00,50.8,42.5,30.25,SSE,150,2.0,6.0,73,0.00,CLR,,0.00,WeatherDisplay:10.37,2013-05-05 07:30:00,
2013-05-05 03:40:00,50.5,42.5,30.25,SSE,152,2.0,5.0,74,0.00,CLR,,0.00,WeatherDisplay:10.37,2013-05-05 07:40:00,
2013-05-05 03:50:00,50.3,42.3,30.25,SSE,164,2.0,6.0,74,0.00,CLR,,0.00,WeatherDisplay:10.37,2013-05-05 07:50:00,
2013-05-05 04:00:00,50.1,42.1,30.26,South,176,3.0,6.0,74,0.00,CLR,,0.00,WeatherDisplay:10.37,2013-05-05 08:00:00,
2013-05-05 04:10:00,49.8,41.9,30.26,SSE,164,3.0,5.0,74,0.00,CLR,,0.00,WeatherDisplay:10.37,2013-05-05 08:10:00,
2013-05-05 04:20:00,49.7,41.7,30.26,SSE,164,1.0,5.0,74,0.00,CLR,,0.00,WeatherDisplay:10.37,2013-05-05 08:20:00,
2013-05-05 04:30:00,49.4,41.9,30.26,SSE,162,1.0,6.0,75,0.00,CLR,,0.00,WeatherDisplay:10.37,2013-05-05 08:30:00,
2013-05-05 04:40:00,49.0,41.4,30.26,SSE,167,1.0,5.0,75,0.00,CLR,,0.00,WeatherDisplay:10.37,2013-05-05 08:40:00,
2013-05-05 04:50:00,48.6,41.4,30.26,SSE,167,0.0,3.0,76,0.00,CLR,,0.00,WeatherDisplay:10.37,2013-05-05 08:50:00,
2013-05-05 05:00:00,48.2,41.3,30.26,SSE,167,0.0,3.0,77,0.00,CLR,,0.00,WeatherDisplay:10.37,2013-05-05 09:00:00,
2013-05-05 05:10:00,48.0,41.1,30.26,SSE,167,1.0,5.0,77,0.00,CLR,,0.00,WeatherDisplay:10.37,2013-05-05 09:10:00,
2013-05-05 05:20:00,47.9,41.0,30.26,SSE,167,0.0,3.0,77,0.00,CLR,,0.00,WeatherDisplay:10.37,2013-05-05 09:20:00,
2013-05-05 05:30:00,47.0,40.9,30.26,SSE,167,0.0,3.0,79,0.00,CLR,,0.00,WeatherDisplay:10.37,2013-05-05 09:30:00,
2013-05-05 05:40:00,46.7,40.5,30.27,SSE,167,0.0,2.0,79,0.00,CLR,,0.00,WeatherDisplay:10.37,2013-05-05 09:40:00,
2013-05-05 05:50:00,45.8,40.3,30.27,SSE,167,0.0,0.0,81,0.00,CLR,,0.00,WeatherDisplay:10.37,2013-05-05 09:50:00,
2013-05-05 06:00:00,44.9,40.0,30.27,SSE,167,0.0,0.0,83,0.00,CLR,,0.00,WeatherDisplay:10.37,2013-05-05 10:00:00,
2013-05-05 06:10:00,44.5,40.0,30.27,SSE,167,0.0,0.0,84,0.00,CLR,,0.00,WeatherDisplay:10.37,2013-05-05 10:10:00,
2013-05-05 06:20:00,44.2,40.0,30.27,SSE,167,0.0,0.0,85,0.00,CLR,,0.00,WeatherDisplay:10.37,2013-05-05 10:20:00,
2013-05-05 06:30:00,44.5,40.3,30.27,SSE,167,0.0,0.0,85,0.00,CLR,,0.00,WeatherDisplay:10.37,2013-05-05 10:30:00,
2013-05-05 06:40:00,45.4,41.2,30.28,SSE,167,0.0,0.0,85,0.00,CLR,,0.00,WeatherDisplay:10.37,2013-05-05 10:40:00,
2013-05-05 06:50:00,46.5,41.0,30.28,SSE,167,1.0,3.0,81,0.00,CLR,,0.00,WeatherDisplay:10.37,2013-05-05 10:50:00,
2013-05-05 07:00:00,47.7,41.2,30.28,SSE,167,0.0,3.0,78,0.00,CLR,,0.00,WeatherDisplay:10.37,2013-05-05 11:00:00,
2013-05-05 07:10:00,48.4,40.8,30.28,SSE,167,1.0,3.0,75,0.00,CLR,,0.00,WeatherDisplay:10.37,2013-05-05 11:10:00,
2013-05-05 07:20:00,49.5,41.9,30.28,SSE,167,1.0,3.0,75,0.00,CLR,,0.00,WeatherDisplay:10.37,2013-05-05 11:20:00,
2013-05-05 07:30:00,50.4,42.4,30.28,SSE,154,1.0,6.0,74,0.00,CLR,,0.00,WeatherDisplay:10.37,2013-05-05 11:30:00,
2013-05-05 07:40:00,51.4,41.9,30.28,South,172,3.0,9.0,70,0.00,CLR,,0.00,WeatherDisplay:10.37,2013-05-05 11:40:00,
2013-05-05 07:50:00,51.7,41.1,30.28,South,173,5.0,6.0,67,0.00,CLR,,0.00,WeatherDisplay:10.37,2013-05-05 11:50:00,
2013-05-05 08:00:00,52.3,41.7,30.28,SSE,151,3.0,6.0,67,0.00,CLR,,0.00,WeatherDisplay:10.37,2013-05-05 12:00:00,
2013-05-05 08:10:00,53.0,42.0,30.28,SSE,159,0.0,5.0,66,0.00,CLR,,0.00,WeatherDisplay:10.37,2013-05-05 12:10:00,
2013-05-05 08:20:00,53.5,41.6,30.28,SSE,148,2.0,8.0,64,0.00,CLR,,0.00,WeatherDisplay:10.37,2013-05-05 12:20:00,
2013-05-05 08:30:00,54.4,40.8,30.28,SE,125,2.0,5.0,60,0.00,CLR,,0.00,WeatherDisplay:10.37,2013-05-05 12:30:00,
2013-05-05 08:40:00,54.3,39.3,30.29,South,181,5.0,6.0,57,0.00,CLR,,0.00,WeatherDisplay:10.37,2013-05-05 12:40:00,
2013-05-05 08:50:00,54.4,39.0,30.29,SSE,160,3.0,8.0,56,0.00,CLR,,0.00,WeatherDisplay:10.37,2013-05-05 12:50:00,
2013-05-05 09:00:00,54.8,38.5,30.28,South,185,7.0,8.0,54,0.00,CLR,,0.00,WeatherDisplay:10.37,2013-05-05 13:00:00,
2013-05-05 09:10:00,55.8,40.8,30.28,South,179,5.0,9.0,57,0.00,CLR,,0.00,WeatherDisplay:10.37,2013-05-05 13:10:00,
2013-05-05 09:20:00,55.9,38.0,30.28,SSE,162,3.0,10.0,51,0.00,CLR,,0.00,WeatherDisplay:10.37,2013-05-05 13:20:00,
2013-05-05 09:30:00,56.3,38.3,30.28,South,179,5.0,9.0,51,0.00,CLR,,0.00,WeatherDisplay:10.37,2013-05-05 13:30:00,
2013-05-05 09:40:00,57.1,38.6,30.27,SSE,159,0.0,8.0,50,0.00,CLR,,0.00,WeatherDisplay:10.37,2013-05-05 13:40:00,
2013-05-05 09:50:00,57.9,38.8,30.27,SE,146,2.0,6.0,49,0.00,CLR,,0.00,WeatherDisplay:10.37,2013-05-05 13:50:00,
2013-05-05 10:00:00,58.5,38.3,30.27,SE,136,5.0,5.0,47,0.00,CLR,,0.00,WeatherDisplay:10.37,2013-05-05 14:00:00,
2013-05-05 10:10:00,59.8,39.5,30.27,ESE,105,5.0,5.0,47,0.00,CLR,,0.00,WeatherDisplay:10.37,2013-05-05 14:10:00,
2013-05-05 10:20:00,59.2,37.3,30.26,South,187,6.0,8.0,44,0.00,CLR,,0.00,WeatherDisplay:10.37,2013-05-05 14:20:00,
2013-05-05 10:30:00,59.6,38.2,30.26,SSW,205,6.0,6.0,45,0.00,CLR,,0.00,WeatherDisplay:10.37,2013-05-05 14:30:00,
2013-05-05 10:40:00,60.9,37.7,30.26,ESE,102,5.0,10.0,42,0.00,CLR,,0.00,WeatherDisplay:10.37,2013-05-05 14:40:00,
2013-05-05 10:50:00,61.1,36.6,30.26,ESE,117,3.0,8.0,40,0.00,CLR,,0.00,WeatherDisplay:10.37,2013-05-05 14:50:00,
2013-05-05 11:00:00,62.4,37.7,30.26,East,94,5.0,8.0,40,0.00,CLR,,0.00,WeatherDisplay:10.37,2013-05-05 15:00:00,
2013-05-05 11:10:00,62.3,38.3,30.25,SE,144,1.0,6.0,41,0.00,CLR,,0.00,WeatherDisplay:10.37,2013-05-05 15:10:00,
2013-05-05 11:20:00,62.2,37.0,30.25,SW,215,0.0,5.0,39,0.00,CLR,,0.00,WeatherDisplay:10.37,2013-05-05 15:20:00,
2013-05-05 11:30:00,64.3,38.1,30.24,ESE,118,5.0,5.0,38,0.00,CLR,,0.00,WeatherDisplay:10.37,2013-05-05 15:30:00,
2013-05-05 11:40:00,64.9,39.3,30.24,ESE,116,2.0,5.0,39,0.00,CLR,,0.00,WeatherDisplay:10.37,2013-05-05 15:40:00,
2013-05-05 11:50:00,64.5,38.3,30.23,SE,137,2.0,9.0,38,0.00,CLR,,0.00,WeatherDisplay:10.37,2013-05-05 15:50:00,
2013-05-05 12:00:00,65.2,36.1,30.23,East,85,5.0,8.0,34,0.00,CLR,,0.00,WeatherDisplay:10.37,2013-05-05 16:00:00,
2013-05-05 12:10:00,65.4,38.4,30.23,SE,129,6.0,6.0,37,0.00,FEW,,0.00,WeatherDisplay:10.37,2013-05-05 16:10:00,
2013-05-05 12:20:00,66.0,36.0,30.22,ESE,110,2.0,8.0,33,0.00,FEW,,0.00,WeatherDisplay:10.37,2013-05-05 16:20:00,
2013-05-05 12:30:00,66.4,38.6,30.22,NNE,26,3.0,8.0,36,0.00,FEW,,0.00,WeatherDisplay:10.37,2013-05-05 16:30:00,
2013-05-05 12:40:00,67.9,38.5,30.21,East,99,3.0,6.0,34,0.00,FEW,,0.00,WeatherDisplay:10.37,2013-05-05 16:40:00,
2013-05-05 12:50:00,67.6,39.0,30.20,East,97,2.0,5.0,35,0.00,FEW,,0.00,WeatherDisplay:10.37,2013-05-05 16:50:00,
2013-05-05 13:00:00,68.1,40.1,30.20,WSW,252,1.0,8.0,36,0.00,FEW,,0.00,WeatherDisplay:10.37,2013-05-05 17:00:00,
2013-05-05 13:10:00,68.1,38.6,30.20,SE,137,6.0,8.0,34,0.00,FEW,,0.00,WeatherDisplay:10.37,2013-05-05 17:10:00,
2013-05-05 13:20:00,68.8,38.5,30.19,SE,139,1.0,6.0,33,0.00,FEW,,0.00,WeatherDisplay:10.37,2013-05-05 17:20:00,
2013-05-05 13:30:00,69.0,38.7,30.19,WSW,254,3.0,10.0,33,0.00,FEW,,0.00,WeatherDisplay:10.37,2013-05-05 17:30:00,
2013-05-05 13:40:00,69.9,40.2,30.19,SE,129,6.0,9.0,34,0.00,FEW,,0.00,WeatherDisplay:10.37,2013-05-05 17:40:00,
2013-05-05 13:50:00,71.0,37.1,30.18,East,85,6.0,8.0,29,0.00,FEW,,0.00,WeatherDisplay:10.37,2013-05-05 17:50:00,
2013-05-05 14:00:00,71.6,40.9,30.18,ENE,57,1.0,8.0,33,0.00,FEW,,0.00,WeatherDisplay:10.37,2013-05-05 18:00:00,
2013-05-05 14:10:00,71.8,39.5,30.18,ESE,115,6.0,9.0,31,0.00,FEW,,0.00,WeatherDisplay:10.37,2013-05-05 18:10:00,
2013-05-05 14:20:00,72.2,40.6,30.17,SW,223,8.0,12.0,32,0.00,FEW,,0.00,WeatherDisplay:10.37,2013-05-05 18:20:00,
2013-05-05 14:30:00,72.0,40.5,30.17,WSW,257,2.0,9.0,32,0.00,FEW,,0.00,WeatherDisplay:10.37,2013-05-05 18:30:00,
2013-05-05 14:40:00,72.2,40.7,30.17,SSE,156,5.0,9.0,32,0.00,FEW,,0.00,WeatherDisplay:10.37,2013-05-05 18:40:00,
2013-05-05 14:50:00,72.6,39.4,30.17,SSE,162,2.0,6.0,30,0.00,FEW,,0.00,WeatherDisplay:10.37,2013-05-05 18:50:00,
2013-05-05 15:00:00,73.2,39.0,30.16,SSW,202,5.0,9.0,29,0.00,FEW,,0.00,WeatherDisplay:10.37,2013-05-05 19:00:00,
2013-05-05 15:10:00,72.8,39.6,30.16,SSE,161,2.0,8.0,30,0.00,FEW,,0.00,WeatherDisplay:10.37,2013-05-05 19:10:00,
2013-05-05 15:20:00,73.5,41.0,30.16,SSW,213,2.0,14.0,31,0.00,FEW,,0.00,WeatherDisplay:10.37,2013-05-05 19:20:00,
2013-05-05 15:30:00,73.7,39.5,30.15,SSW,212,5.0,8.0,29,0.00,FEW,,0.00,WeatherDisplay:10.37,2013-05-05 19:30:00,
2013-05-05 15:40:00,74.3,39.1,30.15,NNW,342,0.0,8.0,28,0.00,FEW,,0.00,WeatherDisplay:10.37,2013-05-05 19:40:00,
2013-05-05 15:50:00,75.0,40.6,30.14,North,5,3.0,6.0,29,0.00,FEW,,0.00,WeatherDisplay:10.37,2013-05-05 19:50:00,
2013-05-05 16:00:00,74.3,39.0,30.14,SSW,199,2.0,8.0,28,0.00,FEW,,0.00,WeatherDisplay:10.37,2013-05-05 20:00:00,
2013-05-05 16:10:00,74.8,38.5,30.14,South,190,1.0,5.0,27,0.00,FEW,,0.00,WeatherDisplay:10.37,2013-05-05 20:10:00,
2013-05-05 16:20:00,75.6,37.3,30.14,WNW,289,6.0,10.0,25,0.00,FEW,,0.00,WeatherDisplay:10.37,2013-05-05 20:20:00,
2013-05-05 16:30:00,75.8,39.4,30.13,West,265,2.0,8.0,27,0.00,FEW,,0.00,WeatherDisplay:10.37,2013-05-05 20:30:00,
2013-05-05 16:40:00,75.4,39.1,30.13,North,355,1.0,5.0,27,0.00,FEW,,0.00,WeatherDisplay:10.37,2013-05-05 20:40:00,
2013-05-05 16:50:00,75.0,38.7,30.13,South,186,3.0,9.0,27,0.00,FEW,,0.00,WeatherDisplay:10.37,2013-05-05 20:50:00,
2013-05-05 17:00:00,74.9,36.7,30.13,SSW,202,6.0,6.0,25,0.00,FEW,,0.00,WeatherDisplay:10.37,2013-05-05 21:00:00,
2013-05-05 17:10:00,74.7,37.5,30.13,South,171,3.0,6.0,26,0.00,CLR,,0.00,WeatherDisplay:10.37,2013-05-05 21:10:00,
2013-05-05 17:20:00,75.5,38.2,30.12,SSW,202,0.0,5.0,26,0.00,CLR,,0.00,WeatherDisplay:10.37,2013-05-05 21:20:00,
2013-05-05 17:30:00,75.0,38.7,30.12,South,188,0.0,6.0,27,0.00,CLR,,0.00,WeatherDisplay:10.37,2013-05-05 21:30:00,
2013-05-05 17:40:00,74.7,37.5,30.12,WSW,247,0.0,8.0,26,0.00,CLR,,0.00,WeatherDisplay:10.37,2013-05-05 21:40:00,
2013-05-05 17:50:00,73.8,34.7,30.12,SSE,168,3.0,6.0,24,0.00,CLR,,0.00,WeatherDisplay:10.37,2013-05-05 21:50:00,
2013-05-05 18:00:00,73.6,36.6,30.12,SSE,167,0.0,5.0,26,0.00,CLR,,0.00,WeatherDisplay:10.37,2013-05-05 22:00:00,
2013-05-05 18:10:00,73.5,37.5,30.12,WSW,242,2.0,8.0,27,0.00,CLR,,0.00,WeatherDisplay:10.37,2013-05-05 22:10:00,
2013-05-05 18:20:00,73.1,36.1,30.12,SSE,155,5.0,7.0,26,0.00,CLR,,0.00,WeatherDisplay:10.37,2013-05-05 22:20:00,
2013-05-05 18:30:00,72.6,33.7,30.12,SSE,159,0.0,8.0,24,0.00,CLR,,0.00,WeatherDisplay:10.37,2013-05-05 22:30:00,
2013-05-05 18:40:00,72.4,34.6,30.12,South,173,2.0,5.0,25,0.00,CLR,,0.00,WeatherDisplay:10.37,2013-05-05 22:40:00,
2013-05-05 18:50:00,72.0,34.2,30.12,SSW,202,0.0,5.0,25,0.00,CLR,,0.00,WeatherDisplay:10.37,2013-05-05 22:50:00,
2013-05-05 19:00:00,71.8,34.1,30.12,South,177,1.0,6.0,25,0.00,CLR,,0.00,WeatherDisplay:10.37,2013-05-05 23:00:00,
2013-05-05 19:10:00,71.2,33.5,30.12,SSW,195,0.0,5.0,25,0.00,CLR,,0.00,WeatherDisplay:10.37,2013-05-05 23:10:00,
2013-05-05 19:20:00,70.2,36.4,30.13,SSW,195,0.0,3.0,29,0.00,CLR,,0.00,WeatherDisplay:10.37,2013-05-05 23:20:00,
2013-05-05 19:30:00,68.5,36.6,30.13,SSW,195,0.0,2.0,31,0.00,CLR,,0.00,WeatherDisplay:10.37,2013-05-05 23:30:00,
2013-05-05 19:40:00,68.7,36.0,30.13,SSW,195,1.0,3.0,30,0.00,CLR,,0.00,WeatherDisplay:10.37,2013-05-05 23:40:00,
2013-05-05 19:50:00,68.0,35.4,30.13,SSW,195,0.0,3.0,30,0.00,CLR,,0.00,WeatherDisplay:10.37,2013-05-05 23:50:00,
2013-05-05 20:00:00,66.7,35.1,30.14,SSW,195,1.0,3.0,31,0.00,CLR,,0.00,WeatherDisplay:10.37,2013-05-06 00:00:00,
2013-05-05 20:10:00,66.7,35.9,30.14,SSW,195,0.0,2.0,32,0.00,CLR,,0.00,WeatherDisplay:10.37,2013-05-06 00:10:00,
2013-05-05 20:20:00,64.8,35.7,30.14,SSW,195,0.0,2.0,34,0.00,CLR,,0.00,WeatherDisplay:10.37,2013-05-06 00:20:00,
2013-05-05 20:30:00,64.6,35.5,30.15,SSW,195,0.0,2.0,34,0.00,CLR,,0.00,WeatherDisplay:10.37,2013-05-06 00:30:00,
2013-05-05 20:40:00,65.2,33.8,30.15,SSW,195,1.0,3.0,31,0.00,CLR,,0.00,WeatherDisplay:10.37,2013-05-06 00:40:00,
2013-05-05 20:50:00,64.4,34.6,30.16,SSW,195,0.0,2.0,33,0.00,CLR,,0.00,WeatherDisplay:10.37,2013-05-06 00:50:00,
2013-05-05 21:00:00,63.3,33.6,30.16,SSW,195,0.0,3.0,33,0.00,CLR,,0.00,WeatherDisplay:10.37,2013-05-06 01:00:00,
2013-05-05 21:10:00,63.5,33.1,30.16,SSW,195,0.0,3.0,32,0.00,CLR,,0.00,WeatherDisplay:10.37,2013-05-06 01:10:00,
2013-05-05 21:20:00,63.8,32.6,30.17,SSW,195,3.0,5.0,31,0.00,CLR,,0.00,WeatherDisplay:10.37,2013-05-06 01:20:00,
2013-05-05 21:30:00,63.6,33.2,30.17,SSW,195,0.0,3.0,32,0.00,CLR,,0.00,WeatherDisplay:10.37,2013-05-06 01:30:00,
2013-05-05 21:40:00,62.5,34.5,30.17,SSW,195,0.0,2.0,35,0.00,CLR,,0.00,WeatherDisplay:10.37,2013-05-06 01:40:00,
2013-05-05 21:50:00,62.0,33.3,30.18,SSW,195,1.0,3.0,34,0.00,CLR,,0.00,WeatherDisplay:10.37,2013-05-06 01:50:00,
2013-05-05 21:59:00,61.5,33.6,30.18,SSW,195,0.0,3.0,35,0.00,CLR,,0.00,WeatherDisplay:10.37,2013-05-06 01:59:00,
2013-05-05 22:10:00,61.9,34.6,30.18,SSE,162,5.0,8.0,36,0.00,CLR,,0.00,WeatherDisplay:10.37,2013-05-06 02:10:00,
2013-05-05 22:20:00,62.2,38.2,30.18,SSE,166,5.0,10.0,41,0.00,CLR,,0.00,WeatherDisplay:10.37,2013-05-06 02:20:00,
2013-05-05 22:30:00,61.4,39.9,30.18,South,173,2.0,8.0,45,0.00,CLR,,0.00,WeatherDisplay:10.37,2013-05-06 02:30:00,
2013-05-05 22:40:00,60.7,40.3,30.18,SSE,167,3.0,6.0,47,0.00,CLR,,0.00,WeatherDisplay:10.37,2013-05-06 02:40:00,
2013-05-05 22:50:00,60.4,41.7,30.19,SSE,167,5.0,9.0,50,0.00,CLR,,0.00,WeatherDisplay:10.37,2013-05-06 02:50:00,
2013-05-05 22:59:00,59.9,42.7,30.19,South,171,5.0,12.0,53,0.00,CLR,,0.00,WeatherDisplay:10.37,2013-05-06 02:59:00,
2013-05-05 23:10:00,59.3,43.1,30.19,SSE,159,8.0,10.0,55,0.00,CLR,,0.00,WeatherDisplay:10.37,2013-05-06 03:10:00,
2013-05-05 23:20:00,59.0,43.3,30.19,SSE,158,9.0,10.0,56,0.00,CLR,,0.00,WeatherDisplay:10.37,2013-05-06 03:20:00,
2013-05-05 23:30:00,58.4,43.3,30.19,SSE,154,12.0,12.0,57,0.00,CLR,,0.00,WeatherDisplay:10.37,2013-05-06 03:30:00,
2013-05-05 23:40:00,57.9,43.2,30.19,SSE,154,6.0,12.0,58,0.00,CLR,,0.00,WeatherDisplay:10.37,2013-05-06 03:40:00,
2013-05-05 23:50:00,57.2,43.0,30.19,SE,140,6.0,10.0,59,0.00,CLR,,0.00,WeatherDisplay:10.37,2013-05-06 03:50:00,